Weather reports worldwide

Advertisment
Roquetas de Mar, Spain (8492): temperature & dewpoint: 26.06.2020 08:00:00 - 02.07.2020 08:00:00 (CEST)Roquetas de Mar, Spain (8492): wind speed & gusts: 26.06.2020 08:00:00 - 02.07.2020 08:00:00 (CEST)Roquetas de Mar, Spain (8492): wind direction: 26.06.2020 08:00:00 - 02.07.2020 08:00:00 (CEST)Roquetas de Mar, Spain (8492): reduced air pressure: 26.06.2020 08:00:00 - 02.07.2020 08:00:00 (CEST)Roquetas de Mar, Spain (8492): visibility: 26.06.2020 08:00:00 - 02.07.2020 08:00:00 (CEST)Roquetas de Mar, Spain (8492): sunshine duration: 26.06.2020 08:00:00 - 02.07.2020 08:00:00 (CEST)Roquetas de Mar, Spain (8492): precipitation: 26.06.2020 08:00:00 - 02.07.2020 08:00:00 (CEST)
Date & Time tt [°C] td [°C] ff [km/h] ff [kn] fx [km/h] fx [kn] dd ppp [hPa] vv [km] sd [min] rr [mm]
02.07.2020 08:00:00 - - - - - - - - - - -
02.07.2020 07:00:00 20,0 17,9 5 3 10 5 S 1012,0 - 0 0,0
02.07.2020 06:00:00 19,6 17,4 6 3 9 5 WNW 1011,3 - 0 0,0
02.07.2020 05:00:00 20,6 18,2 5 3 11 6 W 1011,7 - 0 0,0
02.07.2020 04:00:00 20,9 18,3 8 5 23 12 W 1011,9 - 0 0,0
02.07.2020 03:00:00 21,4 19,0 12 6 21 11 WNW 1012,3 - 0 0,0
02.07.2020 02:00:00 21,8 19,0 16 9 24 13 W 1012,6 - 0 -
02.07.2020 01:00:00 22,3 19,1 15 8 32 17 W 1012,7 - 0 0,0
02.07.2020 00:00:00 22,6 19,2 13 7 24 13 W 1012,3 - 0 0,0
01.07.2020 23:00:00 22,8 18,8 16 8 23 12 W 1011,5 - 0 0,0
01.07.2020 22:00:00 23,9 18,8 13 7 24 13 W 1011,3 - 0 0,0
01.07.2020 21:00:00 25,6 18,0 15 8 26 14 W 1011,4 - 0 0,0
01.07.2020 20:00:00 26,5 18,4 12 6 32 17 W 1011,5 - 0 -
01.07.2020 19:00:00 26,3 18,7 15 8 29 16 W 1011,8 - 0 0,0
01.07.2020 18:00:00 26,3 19,2 13 7 28 15 WSW 1012,2 20 0 0,0
01.07.2020 17:00:00 26,8 19,1 16 8 35 19 W 1012,2 20 0 0,0
01.07.2020 16:00:00 26,0 19,8 16 9 36 19 W 1012,9 20 0 0,0
01.07.2020 15:00:00 26,3 20,2 15 8 35 19 WSW 1013,1 18 0 0,0
01.07.2020 14:00:00 25,3 20,1 17 9 34 18 W 1013,4 18 0 -
01.07.2020 13:00:00 25,7 19,6 17 9 36 19 W 1013,8 20 0 0,0
01.07.2020 12:00:00 24,5 19,6 18 10 35 19 W 1013,8 17 0 0,0
01.07.2020 11:00:00 23,4 19,8 22 12 37 20 W 1013,6 20 0 0,0
01.07.2020 10:00:00 22,0 19,7 22 12 36 20 W 1013,7 18 0 0,0
01.07.2020 09:00:00 21,6 19,7 18 10 36 19 W 1013,4 14 0 0,0
01.07.2020 08:00:00 21,6 19,9 21 11 42 23 W 1012,7 12 0 -
01.07.2020 07:00:00 21,8 20,1 16 9 24 13 W 1012,2 12 0 0,0
01.07.2020 06:00:00 22,0 20,1 10 6 25 13 W 1011,8 11 0 0,0
01.07.2020 05:00:00 22,1 20,2 13 7 25 13 WSW 1011,9 13 0 0,0
01.07.2020 04:00:00 22,1 20,1 12 7 22 12 W 1012,0 12 0 0,0
01.07.2020 03:00:00 22,3 20,1 10 5 19 11 W 1012,8 12 0 0,0
01.07.2020 02:00:00 22,8 20,1 10 5 21 11 W 1013,3 13 0 -
01.07.2020 01:00:00 22,9 20,1 14 8 - - W 1013,4 17 - -
01.07.2020 00:00:00 - - - - - - - - - - -
30.06.2020 23:00:00 - - - - - - - - - - -
30.06.2020 22:00:00 24,1 20,5 12 7 21 12 W 1012,5 - 0 0,0
30.06.2020 21:00:00 24,6 20,3 14 8 25 13 W 1011,9 - 0 0,0
30.06.2020 20:00:00 25,2 20,5 19 10 26 14 W 1011,5 - 0 -
30.06.2020 19:00:00 25,8 20,6 18 10 28 15 W 1011,8 - 0 0,0
30.06.2020 18:00:00 26,4 20,7 15 8 32 17 W 1012,1 - 0 0,0
30.06.2020 17:00:00 26,1 20,7 24 13 36 19 W 1012,4 - 0 0,0
30.06.2020 16:00:00 26,5 20,8 20 11 36 19 W 1012,9 - 0 0,0
30.06.2020 15:00:00 26,7 20,5 18 10 30 16 W 1013,3 - 0 0,0
30.06.2020 14:00:00 26,5 20,6 10 6 20 11 WSW 1013,6 - 0 -
30.06.2020 13:00:00 26,1 20,4 10 6 19 10 WSW 1013,5 - 0 0,0
30.06.2020 12:00:00 25,5 20,3 9 5 19 10 WSW 1013,6 - 0 0,0
30.06.2020 11:00:00 24,4 20,7 7 4 14 8 WSW 1013,3 - 0 0,0
30.06.2020 10:00:00 23,1 21,0 8 4 16 8 WSW 1013,2 - 0 0,0
30.06.2020 09:00:00 22,8 21,1 9 5 18 10 WNW 1013,1 - 0 0,0
30.06.2020 08:00:00 22,1 20,2 6 3 12 7 WSW 1012,1 - 0 -
30.06.2020 07:00:00 21,7 19,8 7 4 21 11 NNW 1011,8 - 0 0,0
30.06.2020 06:00:00 22,2 20,1 12 6 19 10 WSW 1012,2 - 0 0,0
30.06.2020 05:00:00 21,2 19,1 8 4 12 7 NW 1011,7 - 0 0,0
30.06.2020 04:00:00 22,3 20,1 8 4 12 7 WSW 1012,0 - 0 0,0
30.06.2020 03:00:00 21,2 18,8 3 2 9 5 N 1012,7 - 0 0,0
30.06.2020 02:00:00 21,6 19,0 5 3 12 7 NE 1013,3 - 0 -
30.06.2020 01:00:00 21,9 18,9 5 3 8 4 N 1014,2 - 0 0,0
30.06.2020 00:00:00 22,6 19,6 3 2 5 3 NW 1014,7 - 0 0,0
29.06.2020 23:00:00 23,4 20,5 3 1 13 7 S 1014,7 - 0 0,0
29.06.2020 22:00:00 23,9 20,7 6 3 14 8 W 1014,4 - 0 0,0
29.06.2020 21:00:00 24,4 20,7 8 4 14 8 WSW 1013,9 - 0 0,0
29.06.2020 20:00:00 24,9 20,8 10 5 16 8 SW 1013,3 - 0 -
29.06.2020 19:00:00 25,6 20,4 10 6 17 9 WSW 1013,6 - 0 0,0
29.06.2020 18:00:00 25,8 20,6 8 4 16 8 SSW 1014,2 - 0 0,0
29.06.2020 17:00:00 25,6 20,2 8 4 17 9 SSE 1014,7 - 0 0,0
29.06.2020 16:00:00 25,8 19,4 10 5 17 9 SSE 1015,3 - 0 0,0
29.06.2020 15:00:00 26,4 18,5 10 5 17 9 SSE 1016,1 - 0 0,0
29.06.2020 14:00:00 26,3 16,8 6 3 18 10 ESE 1016,5 - 0 -
29.06.2020 13:00:00 25,4 19,3 9 5 22 12 ESE 1016,7 - 0 0,0
29.06.2020 12:00:00 24,4 19,7 11 6 19 11 ESE 1016,7 - 0 0,0
29.06.2020 11:00:00 25,3 19,0 11 6 24 13 ESE 1016,8 - 0 0,0
29.06.2020 10:00:00 24,3 16,3 4 2 9 5 SE 1016,7 - 0 0,0
29.06.2020 09:00:00 20,7 18,2 4 2 9 5 NNW 1016,4 - 0 0,0
29.06.2020 08:00:00 18,0 15,6 4 2 7 4 W 1015,7 - 0 -
29.06.2020 07:00:00 17,1 14,3 4 2 11 6 E 1015,0 - 0 0,0
29.06.2020 06:00:00 17,9 15,5 5 3 8 4 W 1014,7 - 0 0,0
29.06.2020 05:00:00 18,6 16,2 5 3 8 4 NNE 1015,0 - 0 0,0
29.06.2020 04:00:00 19,0 16,4 1 1 3 1 NE 1015,5 - 0 0,0
29.06.2020 03:00:00 19,4 16,8 2 1 9 5 NNE 1016,6 - 0 0,0
29.06.2020 02:00:00 19,8 16,6 5 3 8 5 NW 1017,2 - 0 -
29.06.2020 01:00:00 20,1 16,6 1 1 3 2 S 1017,3 - 0 0,0
29.06.2020 00:00:00 21,0 17,2 2 1 4 2 NE 1017,2 - 0 0,0
28.06.2020 23:00:00 22,3 18,3 2 1 8 4 E 1016,6 - 0 0,0
28.06.2020 22:00:00 23,6 18,9 5 3 12 7 E 1015,9 - 0 0,0
28.06.2020 21:00:00 24,4 19,3 7 4 14 8 ESE 1015,4 - 0 0,0
28.06.2020 20:00:00 25,8 18,2 6 4 13 7 ESE 1015,4 - 0 -
28.06.2020 19:00:00 25,8 20,1 6 3 16 9 ESE 1016,0 - 0 0,0
28.06.2020 18:00:00 26,1 19,5 8 4 19 10 ESE 1016,4 - 0 0,0
28.06.2020 17:00:00 25,7 18,8 11 6 19 11 SE 1016,5 - 0 0,0
28.06.2020 16:00:00 25,7 20,1 10 6 23 12 SSE 1016,8 - 0 0,0
28.06.2020 15:00:00 25,8 19,9 10 6 18 10 SSE 1017,1 - 0 0,0
28.06.2020 14:00:00 24,8 19,2 13 7 19 10 SSE 1017,6 - 0 -
28.06.2020 13:00:00 23,9 18,5 9 5 16 9 SSE 1017,5 - 0 0,0
28.06.2020 12:00:00 24,7 18,8 6 4 20 11 SSE 1017,5 - 0 0,0
28.06.2020 11:00:00 22,8 19,8 7 4 14 7 ESE 1017,3 - 0 0,0
28.06.2020 10:00:00 21,4 19,7 4 2 8 4 ESE 1017,1 - 0 0,0
28.06.2020 09:00:00 20,7 19,0 3 2 58 32 E 1016,6 - 0 0,0
28.06.2020 08:00:00 17,7 15,9 4 2 5 3 ENE 1016,2 - 0 -
28.06.2020 07:00:00 16,9 15,1 0 0 4 2 N 1015,8 - 0 0,0
28.06.2020 06:00:00 17,9 15,9 1 1 5 3 NW 1015,4 - 0 0,0
28.06.2020 05:00:00 19,4 17,4 4 2 10 5 NNW 1015,4 - 0 0,0
28.06.2020 04:00:00 20,6 18,4 8 5 11 6 SW 1015,6 - 0 0,0
28.06.2020 03:00:00 19,1 16,7 1 1 5 3 W 1015,9 - 0 0,0
28.06.2020 02:00:00 20,3 17,9 4 2 14 7 WNW 1016,3 - 0 -
28.06.2020 01:00:00 20,3 17,9 8 4 12 7 NW 1016,6 - 0 0,0
28.06.2020 00:00:00 20,9 18,3 8 5 13 7 W 1016,4 - 0 0,0
27.06.2020 23:00:00 21,5 18,8 5 3 20 11 WSW 1015,7 - 0 0,0
27.06.2020 22:00:00 22,0 18,8 15 8 21 12 SSW 1014,4 - 0 0,0
27.06.2020 21:00:00 23,7 18,3 10 6 20 11 WSW 1014,1 - 0 0,0
27.06.2020 20:00:00 24,5 17,5 9 5 24 13 WSW 1014,3 - 0 -
27.06.2020 19:00:00 24,7 17,9 11 6 26 14 WSW 1014,6 - 0 0,0
27.06.2020 18:00:00 25,3 18,5 14 8 29 16 W 1014,8 - 0 0,0
27.06.2020 17:00:00 25,0 18,9 14 8 27 15 WSW 1015,1 - 0 0,0
27.06.2020 16:00:00 25,3 19,0 16 9 28 15 WSW 1015,1 - 0 0,0
27.06.2020 15:00:00 25,3 18,5 15 8 31 17 WSW 1015,5 - 0 0,0
27.06.2020 14:00:00 24,8 19,4 13 7 23 12 WSW 1015,8 - 0 -
27.06.2020 13:00:00 24,1 19,2 9 5 16 9 SW 1015,9 - 0 0,0
27.06.2020 12:00:00 23,2 18,8 7 4 16 8 SSE 1016,0 - 0 0,0
27.06.2020 11:00:00 22,3 19,5 10 5 54 29 ESE 1016,0 - 0 0,0
27.06.2020 10:00:00 21,4 19,7 14 7 21 12 ENE 1015,8 - 0 0,0
27.06.2020 09:00:00 20,7 19,0 11 6 22 12 E 1015,5 - 0 0,0
27.06.2020 08:00:00 19,9 18,2 12 6 17 9 E 1014,8 - 0 -
27.06.2020 07:00:00 17,9 15,9 8 5 12 6 ENE 1014,3 - 0 0,0
27.06.2020 06:00:00 17,6 15,6 4 2 6 3 E 1013,9 - 0 0,0
27.06.2020 05:00:00 18,1 15,7 4 2 6 4 WNW 1013,7 - 0 0,0
27.06.2020 04:00:00 18,4 15,8 3 2 6 3 SW 1013,8 - 0 0,0
27.06.2020 03:00:00 19,6 17,0 2 1 10 5 WSW 1014,1 - 0 0,0
27.06.2020 02:00:00 21,1 18,3 7 4 9 5 SSW 1014,1 - 0 -
27.06.2020 01:00:00 21,1 18,1 4 2 19 10 WSW 1014,3 - 0 0,0
27.06.2020 00:00:00 21,7 18,3 12 6 21 11 W 1013,8 - 0 0,0
26.06.2020 23:00:00 21,6 18,2 11 6 22 12 W 1013,1 - 0 0,0
26.06.2020 22:00:00 21,8 18,2 10 5 38 20 WNW 1012,8 - 0 0,0
26.06.2020 21:00:00 22,6 18,4 22 12 40 22 W 1012,4 - 0 0,0
26.06.2020 20:00:00 23,7 18,3 27 14 43 23 W 1012,3 - 0 -
26.06.2020 19:00:00 24,0 18,2 28 15 50 27 W 1012,8 - 0 0,0
26.06.2020 18:00:00 24,2 18,4 22 12 45 24 W 1013,8 - 0 0,0
26.06.2020 17:00:00 24,8 18,5 21 11 40 22 WSW 1014,2 - 0 0,0
26.06.2020 16:00:00 25,3 18,5 17 9 29 16 WSW 1014,9 - 0 0,0
26.06.2020 15:00:00 25,0 19,1 13 7 27 15 WSW 1015,2 - 0 0,0
26.06.2020 14:00:00 24,6 19,8 14 8 24 13 WSW 1015,5 - 0 -
26.06.2020 13:00:00 23,2 19,6 14 7 21 11 SSW 1015,5 - 0 0,0
26.06.2020 12:00:00 23,0 19,3 12 6 19 10 SSW 1015,3 - 0 0,0
26.06.2020 11:00:00 22,8 19,0 10 6 16 9 SSW 1015,3 - 0 0,0
26.06.2020 10:00:00 21,8 19,3 9 5 14 8 WSW 1015,3 - 0 0,0
26.06.2020 09:00:00 21,0 18,9 4 2 12 7 W 1015,5 - 0 0,0
26.06.2020 08:00:00 19,2 17,4 2 1 7 4 W 1015,0 - 0 -

tt = temperature
td = dewpoint
ff = wind speed
fx = gusts
dd = wind direction
ppp = reduced air pressure
vv = visibility
sd = sunshine duration
rr = precipitation

Next stations